Location: Windsor
(43.2292°N, 89.3015°W)
Time: 23:04:53
(UTC+00:00)

SR - All Passes

Search period start: 28 May 2022 00:00
Search period end: 07 June 2022 00:00
Orbit: 574 x 879 km, 66.7° (Epoch: 28 May)

Date Brightness Start Highest point End Pass type
(mag) Time Alt. Az. Time Alt. Az. Time Alt. Az.
28 May - 08:55:22 10° SE 08:58:29 17° ESE 09:01:45 10° ENE visible
28 May - 10:35:06 10° SW 10:39:52 62° NW 10:45:08 10° NNE daylight
28 May - 12:20:33 10° WNW 12:23:09 14° NNW 12:25:51 10° N daylight
28 May - 17:32:47 10° NNW 17:37:33 25° NE 17:42:23 10° E daylight
28 May - 19:14:18 10° NW 19:20:09 70° WSW 19:26:01 10° SSE daylight
28 May - 21:00:09 10° W 21:01:14 10° W 21:02:19 10° WSW daylight
29 May - 09:45:03 10° SSW 09:49:47 68° ESE 09:55:01 10° NE visible
29 May - 11:28:34 10° W 11:32:25 22° NW 11:36:32 10° N daylight
29 May - 16:43:19 10° N 16:46:53 16° NE 16:50:30 10° ENE daylight
29 May - 18:24:13 10° NNW 18:30:03 67° ENE 18:35:56 10° SE daylight
29 May - 20:07:17 10° WNW 20:11:38 22° WSW 20:16:00 10° SSW daylight
30 May - 08:55:41 10° S 08:59:56 33° ESE 09:04:33 10° NE visible
30 May - 10:37:22 10° WSW 10:41:54 36° NW 10:46:51 10° NNE daylight
30 May - 15:54:36 10° NNE 15:56:01 11° NNE 15:57:25 10° NE daylight
30 May - 17:34:18 10° NNW 17:39:45 39° NE 17:45:15 10° ESE daylight
30 May - 19:16:25 10° NW 19:21:53 41° WSW 19:27:21 10° S daylight
31 May - 08:07:24 10° SE 08:10:18 16° ESE 08:13:19 10° ENE visible
31 May - 09:46:47 10° SW 09:51:36 68° WNW 09:56:56 10° NNE visible
31 May - 11:31:58 10° WNW 11:34:49 15° NNW 11:37:47 10° N daylight
31 May - 16:44:36 10° N 16:49:16 24° NE 16:53:58 10° E daylight
31 May - 18:26:04 10° NW 18:31:56 75° WSW 18:37:49 10° SSE daylight
31 May - 20:11:08 10° W 20:13:05 12° W 20:15:01 10° WSW daylight
01 Jun - 08:56:49 10° SSW 09:01:33 62° ESE 09:06:46 10° NE visible
01 Jun - 10:40:07 10° W 10:44:06 23° NW 10:48:23 10° N daylight
01 Jun - 15:55:10 10° N 15:58:33 16° NE 16:02:00 10° ENE daylight
01 Jun - 17:35:59 10° NNW 17:41:48 62° NE 17:47:40 10° SE daylight
01 Jun - 19:18:55 10° WNW 19:23:28 24° WSW 19:28:00 10° SSW daylight
02 Jun - 08:07:33 10° S 08:11:43 30° ESE 08:16:14 10° NE visible
02 Jun - 09:49:00 10° WSW 09:53:36 39° NW 09:58:40 10° NNE daylight
02 Jun - 11:36:45 10° NNW 11:37:22 10° NNW 11:37:58 10° NNW daylight
02 Jun - 15:06:45 10° NNE 15:07:40 10° NNE 15:08:35 10° NE daylight
02 Jun - 16:46:06 10° NNW 16:51:29 36° NE 16:56:54 10° ESE daylight
02 Jun - 18:28:08 10° NW 18:33:41 44° WSW 18:39:13 10° S daylight
03 Jun - 07:19:28 10° SE 07:22:06 15° ESE 07:24:51 10° ENE visible
03 Jun - 08:58:29 10° SW 09:03:20 74° WNW 09:08:42 10° NNE visible
03 Jun - 10:43:24 10° WNW 10:46:28 16° NW 10:49:41 10° N daylight
03 Jun - 15:56:24 10° N 16:00:57 23° NE 16:05:32 10° E daylight
03 Jun - 17:37:48 10° NNW 17:43:43 81° WSW 17:49:36 10° SSE daylight
03 Jun - 19:22:24 10° WNW 19:24:55 13° WSW 19:27:25 10° SW daylight
04 Jun - 08:08:35 10° SSW 08:13:19 57° ESE 08:18:31 10° NE visible
04 Jun - 09:51:40 10° W 09:55:47 25° NW 10:00:13 10° NNE daylight
04 Jun - 15:07:01 10° N 15:10:14 15° NE 15:13:29 10° ENE daylight
04 Jun - 16:47:45 10° NNW 16:53:33 58° NE 16:59:22 10° SE daylight
04 Jun - 18:30:33 10° NW 18:35:16 25° WSW 18:39:59 10° SSW daylight
05 Jun - 07:19:25 10° SSE 07:23:31 28° ESE 07:27:55 10° NE visible
05 Jun - 09:00:37 10° WSW 09:05:19 42° NW 09:10:28 10° NNE visible
05 Jun - 10:47:38 10° NW 10:48:59 11° NNW 10:50:21 10° NNW daylight
05 Jun - 15:57:54 10° NNW 16:03:12 34° NE 16:08:32 10° ESE daylight
05 Jun - 17:39:50 10° NW 17:45:28 47° WSW 17:51:04 10° S daylight
06 Jun - 06:31:36 10° SE 06:33:55 13° ESE 06:36:19 10° ENE visible
06 Jun - 08:10:11 10° SW 08:15:04 80° WNW 08:20:29 10° NNE visible
06 Jun - 09:54:51 10° WNW 09:58:07 17° NW 10:01:35 10° N daylight
06 Jun - 15:08:14 10° N 15:12:39 22° NE 15:17:06 10° E daylight
06 Jun - 16:49:33 10° NNW 16:55:29 86° WSW 17:01:23 10° SSE daylight
06 Jun - 18:33:47 10° WNW 18:36:44 14° WSW 18:39:39 10° SW daylight
